Dewpoint
50 53 56 60 65 65 65 63 62 63 62 57 53 56 55 53 52 56 59 60 62 64 65 65 63 62 60 59 62 63 63 62 61 60 59 58 57 56 55 54 54 55 52
44 49 50 54 62 65 64 64 62 61 57 54 53 52 52 51 49 56 59 60 62 63 65 65 63 61 59 61 63 63 63 62 61 60 58 58 57 55 54 54 55 54 54
43 43 47 49 55 65 65 64 61 58 55 56 51 50 50 50 50 55 56 57 59 62 64 65 63 61 59 61 62 63 62 61 60 59 58 57 56 55 53 53 53 52 52
40 40 42 46 50 53 64 64 63 61 58 55 50 51 51 51 52 53 56 56 59 63 63 65 62 62 62 62 62 62 62 62 61 59 58 57 56 55 53 52 52 51 51
37 37 40 44 46 52 61 62 63 61 60 55 51 53 53 55 54 54 56 56 56 61 64 65 62 63 62 62 60 61 61 61 61 59 58 57 55 54 53 51 52 51 51
33 36 39 41 44 47 55 61 61 61 60 59 53 54 54 56 55 54 57 58 56 60 64 64 63 63 62 62 62 61 60 61 61 59 58 57 56 53 54 52 51 51 52
30 33 36 38 42 44 47 55 59 60 60 61 57 56 55 54 53 53 57 59 56 59 62 63 63 63 63 62 62 62 62 62 61 60 59 57 55 54 54 52 53 52 52
29 32 34 36 39 42 43 47 57 56 59 61 57 56 53 53 53 52 52 58 58 58 61 59 62 62 61 61 60 60 62 62 61 59 58 56 55 54 53 52 52 51 51
28 30 32 34 36 39 40 42 45 54 57 59 60 56 52 50 52 53 52 51 57 59 59 60 58 59 59 59 58 58 59 62 61 60 58 56 56 54 53 53 52 52 50
27 28 30 32 33 35 38 40 43 44 51 56 59 58 55 52 50 50 52 52 51 55 56 55 57 57 57 57 57 56 56 58 62 60 59 57 56 55 54 54 53 52 51
25 27 29 31 31 33 35 37 38 40 43 52 57 57 56 54 51 50 49 51 52 53 54 54 54 54 54 53 55 56 55 57 62 61 60 57 56 56 55 55 53 52 52
23 25 28 29 31 32 32 35 37 39 40 44 55 57 55 53 51 50 50 50 50 51 54 54 53 52 53 53 55 56 56 57 60 61 60 58 57 56 56 56 55 53 52
21 24 26 27 29 30 31 32 35 37 39 42 46 56 57 55 55 53 51 50 50 51 52 53 53 52 52 53 55 56 56 57 59 61 60 59 59 58 57 57 56 54 53
22 23 25 26 26 28 30 31 34 36 38 40 43 46 57 58 57 56 54 51 50 50 51 52 53 53 52 53 55 56 56 57 58 61 60 58 59 59 58 58 57 57 56
20 21 24 23 25 27 29 30 31 34 37 39 41 44 50 57 57 56 56 54 52 49 50 52 52 54 53 53 54 56 56 57 58 59 59 58 58 59 59 58 58 58 57
21 22 22 24 23 25 27 29 30 33 35 37 38 41 45 56 57 55 54 54 53 51 49 51 52 54 55 54 54 55 56 56 57 57 57 58 58 57 57 57 58 57 57
21 21 22 23 24 23 25 27 29 29 32 35 39 40 42 46 56 56 55 53 52 51 49 51 52 53 54 54 54 55 55 55 55 56 56 56 56 56 56 55 55 56 56
21 21 20 22 24 24 25 27 26 29 29 32 35 37 39 42 47 56 57 54 52 52 50 50 52 52 53 54 53 53 53 53 54 54 55 55 54 55 55 55 55 55 54
21 22 20 21 23 24 24 24 25 27 29 30 34 36 38 40 43 54 56 55 53 52 52 51 52 52 51 53 53 52 52 53 53 53 53 54 53 54 54 54 54 54 54
22 22 23 22 23 24 24 25 24 26 28 30 34 36 39 40 41 45 55 55 55 54 53 52 52 52 51 51 53 51 51 52 52 53 53 53 53 53 53 53 54 53 53
21 22 22 22 23 24 24 24 25 26 27 29 31 34 36 38 40 42 47 54 54 54 53 52 51 50 49 48 49 50 50 50 51 50 50 50 50 50 51 51 52 51 51
21 21 22 23 23 23 24 25 27 28 28 30 31 33 35 38 40 42 43 49 54 53 53 53 52 50 49 49 50 49 49 48 46 47 48 48 48 48 49 49 49 49 49
20 21 22 23 23 23 24 25 26 29 31 32 32 32 33 37 40 42 43 49 53 53 52 52 52 51 50 50 49 50 49 49 49 48 47 46 46 46 47 47 48 48 48
20 21 22 22 23 24 25 25 26 29 32 32 33 34 34 35 38 41 43 50 53 53 52 52 52 51 51 51 50 50 50 50 47 47 48 46 46 46 47 47 47 46 46
21 21 22 23 24 24 25 26 29 31 31 32 34 35 35 36 37 40 43 46 52 52 52 52 52 52 52 51 51 50 49 48 46 45 47 46 46 45 45 45 45 45 44
21 22 22 23 25 26 26 29 32 32 31 32 34 36 36 37 38 40 42 44 50 51 52 51 51 51 51 51 50 51 50 48 45 44 45 44 43 43 43 41 42 41 40
Wind_Speed
19 20 19 21 16 14 15 17 17 18 18 19 15 19 19 18 17 14 15 17 14 11 15 23 22 21 20 20 19 23 23 21 20 19 18 17 18 17 14 12 10 10 9
20 19 21 22 19 11 13 17 19 19 18 16 16 19 20 17 13 14 16 13 13 11 10 23 22 22 23 22 20 23 24 21 21 20 19 18 19 17 14 12 10 10 9
20 22 19 21 23 12 15 9 14 16 16 16 17 18 17 17 16 18 16 15 12 8 12 22 23 24 24 23 22 23 25 25 23 21 19 18 18 18 16 14 11 10 9
19 21 19 19 22 23 10 14 13 12 16 20 17 17 15 15 16 14 16 15 14 8 9 19 25 24 26 25 23 25 24 23 21 20 18 17 16 17 15 14 12 10 9
20 20 20 19 22 20 16 18 19 21 20 19 19 18 14 13 15 10 14 17 13 10 9 22 28 26 26 25 25 24 21 20 20 19 18 18 17 16 14 13 12 10 10
22 21 19 22 22 21 19 22 28 29 25 15 19 19 18 16 17 12 15 15 15 11 10 17 20 21 24 24 23 25 24 22 21 20 19 18 17 15 15 13 13 11 11
22 21 18 20 20 20 22 21 20 23 16 14 13 7 15 17 19 14 16 15 16 14 11 12 16 15 18 23 22 23 24 23 21 20 19 18 16 17 17 15 14 12 11
22 19 20 19 20 22 22 21 10 18 10 11 10 11 11 7 13 15 13 17 19 15 14 13 16 16 14 13 14 17 20 23 23 21 20 18 17 19 19 17 15 13 12
21 21 21 17 18 18 20 20 17 11 19 15 12 7 7 8 15 8 13 17 20 18 17 16 16 16 16 16 16 17 19 19 23 24 23 20 19 20 20 19 18 16 14
19 20 21 19 17 16 19 18 18 17 19 24 17 20 11 10 17 9 8 12 17 20 20 18 20 20 20 18 19 20 22 20 24 25 25 23 22 21 20 19 18 18 17
18 20 19 19 19 16 17 19 22 19 20 17 26 23 14 8 17 10 13 16 10 17 18 21 19 18 19 19 18 21 24 24 23 26 27 25 24 23 21 19 18 18 18
17 18 19 19 19 18 19 18 19 19 20 22 20 20 26 18 15 10 7 23 23 17 18 16 19 18 19 18 17 23 23 22 22 24 27 27 25 24 22 21 21 19 18
18 19 21 20 18 20 19 19 20 20 17 22 22 18 21 22 9 7 13 16 15 9 8 16 18 18 19 19 19 22 24 23 22 23 27 26 24 25 24 24 24 23 21
19 20 20 20 21 20 20 19 17 16 18 17 20 23 19 18 15 12 3 18 12 5 6 8 11 19 19 19 21 27 22 26 26 25 25 22 22 24 24 23 23 23 23
20 20 20 21 21 20 20 19 17 20 19 20 19 22 20 19 21 20 17 17 16 13 20 12 9 15 19 18 20 22 20 26 27 25 24 22 20 20 22 23 23 23 22
20 22 21 20 21 21 19 19 18 17 18 17 17 21 23 14 19 23 23 20 21 20 17 12 17 12 17 17 19 21 20 24 29 28 26 26 24 21 20 21 22 22 22
20 21 21 21 21 22 20 19 18 20 21 19 17 16 23 22 22 24 25 24 22 20 18 12 13 12 15 17 15 16 18 19 20 28 25 22 21 18 15 14 15 15 18
20 21 21 21 20 21 21 20 19 18 21 21 19 16 21 22 24 19 20 30 26 22 19 20 17 12 13 21 19 18 15 13 16 20 22 20 19 17 17 17 18 17 16
20 20 21 20 21 21 22 21 20 19 19 21 22 21 19 21 25 24 20 25 23 22 20 15 12 9 5 16 16 12 15 13 14 14 17 18 19 20 19 18 20 20 20
19 20 19 20 21 22 22 23 22 21 19 18 19 20 20 19 22 25 23 22 20 21 18 20 16 15 13 8 15 18 16 16 18 12 15 17 19 19 18 19 20 21 22
19 19 20 20 20 20 19 22 21 22 22 20 20 20 21 27 25 30 25 24 24 23 21 22 16 11 15 13 23 16 16 13 12 10 14 15 13 14 15 18 18 21 22
19 20 20 20 20 19 25 28 27 23 23 23 21 21 19 26 28 27 39 36 30 30 27 22 17 23 21 20 21 18 17 11 11 12 17 16 15 16 15 15 19 19 18
18 20 19 18 21 21 27 28 28 23 23 23 21 22 23 21 23 26 29 35 36 35 33 30 30 24 22 22 23 21 20 19 16 13 15 15 13 17 12 12 14 14 14
18 18 19 19 20 21 28 28 28 23 21 24 24 23 26 26 25 23 28 28 30 28 33 30 29 22 21 22 24 24 23 17 5 10 15 13 10 13 9 10 12 13 11
18 18 18 20 20 24 27 28 26 20 20 23 23 25 25 28 30 29 30 30 23 25 26 32 27 24 23 27 22 17 18 20 9 10 15 9 8 8 7 7 9 9 7
18 17 18 19 22 24 27 28 24 18 19 19 20 23 28 33 34 33 31 30 28 29 27 24 23 25 30 28 31 26 23 24 15 8 12 14 10 8 6 1 3 5 5
Wind_Direction
343 333 331 322 230 188 189 189 189 194 204 213 218 186 199 218 216 139 151 159 161 170 187 176 169 167 170 166 161 149 139 136 137 137 135 133 126 127 127 125 126 116 118
343 342 332 323 303 199 202 193 195 196 199 214 227 187 197 210 182 147 149 150 148 166 185 179 173 172 174 166 161 156 150 151 151 151 146 145 137 133 134 134 133 131 125
346 341 329 331 327 240 222 241 218 192 193 209 217 195 200 187 188 145 149 151 148 158 197 190 177 176 176 172 171 165 161 160 161 161 158 152 144 143 144 146 149 147 140
349 340 332 323 324 326 239 232 233 214 202 198 203 194 196 187 174 166 148 147 143 160 203 195 176 178 179 172 167 172 176 166 166 164 163 159 150 150 152 154 160 156 152
344 341 331 325 330 319 265 238 228 204 202 203 190 186 193 177 172 182 160 147 147 160 186 186 178 177 181 174 171 174 173 173 171 172 170 166 159 156 160 160 156 165 157
343 338 335 334 334 334 332 230 232 208 195 211 186 180 189 175 181 184 163 155 154 156 169 174 180 180 176 178 177 178 178 178 177 176 178 174 171 168 161 173 169 173 170
337 336 337 335 333 327 328 315 245 236 205 216 159 176 177 171 178 191 168 156 158 162 153 162 171 167 182 183 183 186 183 179 180 183 182 181 182 174 171 176 176 177 178
335 333 335 336 335 332 326 341 312 256 251 217 174 168 167 174 189 192 185 162 165 165 161 158 166 153 169 177 195 189 186 188 183 187 187 188 185 181 179 177 181 183 184
330 336 330 333 335 333 328 328 322 305 240 213 207 175 163 181 167 195 200 185 166 167 172 169 165 172 185 189 198 197 201 201 196 190 188 190 188 187 183 184 185 183 190
330 327 326 329 333 330 322 326 322 322 306 229 206 214 221 155 173 177 210 202 184 173 171 174 178 181 187 189 194 201 202 201 203 200 189 191 189 192 191 189 192 189 191
326 325 324 329 328 327 324 326 319 330 316 301 221 203 203 202 175 160 190 199 203 182 179 175 179 186 191 189 186 193 198 202 205 204 194 191 194 194 196 194 196 197 197
321 321 324 325 321 324 323 321 318 316 316 303 273 198 200 197 191 174 156 193 197 192 183 181 181 184 186 190 184 186 192 200 202 206 201 196 196 197 199 199 200 201 201
316 316 319 317 321 317 314 313 312 314 306 310 298 252 199 203 174 210 162 174 187 190 179 193 194 189 185 182 183 182 190 196 197 199 203 203 202 200 199 203 206 203 204
307 309 308 314 312 310 310 310 305 300 297 293 302 299 222 192 188 183 214 152 160 166 180 178 189 187 182 180 183 186 190 197 198 198 204 210 205 209 207 211 215 210 207
303 305 306 308 306 306 307 306 303 305 307 296 304 306 303 185 191 186 195 162 161 180 196 199 181 199 191 183 183 183 186 199 200 201 204 212 215 204 210 214 217 218 219
301 301 301 301 303 302 302 301 300 296 294 297 297 303 295 262 184 194 192 191 185 187 199 184 199 190 187 188 181 180 187 193 202 207 210 214 218 214 212 214 219 223 222
297 298 298 298 298 299 298 295 296 297 296 298 297 295 306 296 226 197 196 198 196 191 192 192 193 194 179 178 175 177 181 188 202 208 209 208 214 219 216 213 217 223 226
293 294 294 294 295 295 293 294 295 293 291 289 286 291 285 297 305 219 207 190 195 193 188 174 187 181 189 192 184 180 185 188 197 206 200 196 204 205 211 212 213 215 215
287 286 289 291 291 290 292 290 288 288 283 286 289 285 276 282 274 242 206 199 194 193 195 183 166 167 164 177 178 185 188 197 205 205 207 209 212 217 217 222 220 222 225
283 282 282 286 287 286 287 287 287 285 277 273 273 281 290 278 294 293 211 199 194 196 188 197 175 172 177 168 179 183 191 205 212 201 202 207 207 212 211 221 223 223 226
283 282 282 281 282 282 283 282 280 283 283 278 274 271 273 271 272 277 285 207 192 191 193 199 177 172 177 163 181 188 194 200 207 192 196 203 197 205 218 221 224 227 228
284 284 280 278 281 282 283 283 283 281 281 277 273 274 264 264 265 271 274 262 198 190 193 194 191 194 190 188 188 187 184 182 209 205 198 213 191 214 222 215 220 225 230
282 282 280 275 278 277 280 283 281 280 277 278 275 273 273 265 259 255 275 260 207 199 197 194 200 201 191 185 179 187 191 197 213 186 182 206 185 216 212 218 218 222 227
280 281 280 276 274 276 282 284 284 281 274 273 270 265 265 260 252 247 253 249 207 203 201 197 205 197 208 184 184 192 193 198 124 160 171 194 180 209 195 209 210 209 209
281 279 277 279 276 278 283 286 286 277 272 268 268 267 261 256 248 241 245 259 210 208 209 205 200 186 185 181 182 168 179 176 177 184 193 157 167 155 167 168 176 188 175
280 281 282 278 278 284 287 288 286 275 267 269 273 274 266 252 246 236 233 237 223 207 203 207 202 188 184 183 181 192 184 193 176 166 194 166 154 147 167 222 164 144 128